Location: Unspecified
(0.0000°N, 0.0000°E)
Time: 02:09:24
(UTC+00:00)

Cosmos 726 Rocket - Visible Passes

Search period start: 19 November 2025 00:00
Search period end: 29 November 2025 00:00
Orbit: 947 x 975 km, 83.0° (Epoch: 18 November)

Date Brightness Start Highest point End Pass type
(mag) Time Alt. Az. Time Alt. Az. Time Alt. Az.
19 Nov 6.0 18:32:34 10° SSW 18:38:33 50° W 18:44:29 10° NNW visible
20 Nov 7.2 18:54:33 10° SW 18:59:31 25° W 19:04:26 10° NNW visible
21 Nov 7.9 19:18:20 10° WSW 19:20:28 12° W 19:22:36 10° WNW visible
22 Nov 7.6 04:49:34 10° NE 04:53:42 19° E 04:57:50 10° SE visible
23 Nov 6.6 05:09:03 10° NNE 05:14:39 38° E 05:20:17 10° SSE visible
23 Nov 6.4 18:11:52 10° SSW 18:17:40 42° W 18:23:27 10° NNW visible
24 Nov 7.5 18:34:06 10° SW 18:38:38 21° W 18:43:08 10° NW visible
25 Nov 8.2 04:11:42 10° E 04:11:51 10° E 04:12:02 10° E visible
26 Nov 7.4 04:28:12 10° NE 04:32:49 22° E 04:37:27 10° SE visible
27 Nov 6.2 04:47:59 10° NNE 04:53:46 44° E 04:59:36 10° SSE visible
28 Nov 5.0 05:08:35 10° N 05:14:43 88° E 05:20:56 10° S visible
28 Nov 7.7 18:13:46 10° SW 18:17:45 18° W 18:21:43 10° NW visible
